timestamp,wind_dir_avg,wind_spd_avg,wind_spd_max_dir,wind_spd_gust,battery_voltage,lat,long
2021-11-09 00:04:00+00:00,230.0,5.8,228.0,6.71,12.57,47.59359,-54.27349
2021-11-09 00:14:01+00:00,233.0,5.86,229.0,6.29,12.57,47.59359,-54.27349
2021-11-09 00:24:01+00:00,231.0,5.65,234.0,6.25,12.57,47.59359,-54.27349
2021-11-09 00:34:01+00:00,230.0,4.93,228.0,5.73,12.57,47.59359,-54.27349
2021-11-09 00:44:01+00:00,234.0,5.08,235.0,5.57,12.57,47.59359,-54.27349
2021-11-09 00:54:01+00:00,226.0,4.99,228.0,5.49,12.57,47.59359,-54.27349
2021-11-09 01:04:01+00:00,238.0,4.83,240.0,5.42,12.57,47.59359,-54.27349
2021-11-09 01:14:00+00:00,232.0,4.26,236.0,4.69,12.57,47.59359,-54.27349
2021-11-09 01:24:00+00:00,239.0,4.71,237.0,5.12,12.57,47.59359,-54.27349
2021-11-09 01:34:00+00:00,252.0,4.53,255.0,4.9,12.57,47.59359,-54.27349
2021-11-09 01:44:00+00:00,258.0,4.15,258.0,4.73,12.57,47.59359,-54.27349
2021-11-09 01:54:00+00:00,260.0,3.62,266.0,4.11,12.57,47.59359,-54.27349
2021-11-09 02:04:00+00:00,277.0,4.26,277.0,4.52,12.57,47.59359,-54.27349
2021-11-09 02:14:00+00:00,273.0,3.92,278.0,4.3,12.57,47.59359,-54.27349
2021-11-09 02:24:00+00:00,244.0,3.66,242.0,3.99,12.57,47.59359,-54.27349
2021-11-09 02:34:00+00:00,241.0,3.84,241.0,4.14,12.57,47.59359,-54.27349
2021-11-09 02:44:00+00:00,239.0,3.79,243.0,4.09,12.57,47.59359,-54.27349
2021-11-09 02:54:00+00:00,234.0,2.96,229.0,3.56,12.57,47.59359,-54.27349
2021-11-09 03:04:00+00:00,258.0,2.99,256.0,3.45,12.57,47.59359,-54.27349
2021-11-09 03:14:00+00:00,279.0,2.48,280.0,3.28,12.49,47.59359,-54.27349
2021-11-09 03:24:00+00:00,282.0,2.6,284.0,3.12,12.49,47.59359,-54.27349
2021-11-09 03:34:00+00:00,269.0,2.37,263.0,2.86,12.49,47.59359,-54.27349
2021-11-09 03:44:00+00:00,286.0,1.86,278.0,2.19,12.49,47.59359,-54.27349
2021-11-09 03:54:00+00:00,255.0,1.47,249.0,1.68,12.49,47.59359,-54.27349
2021-11-09 04:04:00+00:00,296.0,1.14,301.0,1.46,12.49,47.59359,-54.27349
2021-11-09 04:14:00+00:00,0.0,2.41,4.0,2.89,12.49,47.59359,-54.27349
2021-11-09 04:24:00+00:00,8.0,1.09,3.0,1.39,12.49,47.59359,-54.27349
2021-11-09 04:34:00+00:00,352.0,1.08,348.0,1.24,12.49,47.59359,-54.27349
2021-11-09 04:44:00+00:00,354.0,2.65,356.0,3.08,12.49,47.59359,-54.27349
2021-11-09 04:54:00+00:00,354.0,2.29,352.0,2.71,12.49,47.59359,-54.27349
2021-11-09 05:04:00+00:00,0.0,3.01,1.0,3.27,12.49,47.59359,-54.27349
2021-11-09 05:14:00+00:00,1.0,2.33,3.0,2.77,12.49,47.59359,-54.27349
2021-11-09 05:24:00+00:00,25.0,1.27,24.0,1.49,12.49,47.59359,-54.27349
2021-11-09 05:34:00+00:00,12.0,1.5,19.0,1.92,12.49,47.59359,-54.27349
2021-11-09 05:44:00+00:00,23.0,2.07,30.0,2.46,12.49,47.59359,-54.27349
2021-11-09 05:54:00+00:00,62.0,1.91,71.0,3.29,12.49,47.59359,-54.27349
2021-11-09 06:04:00+00:00,69.0,1.48,77.0,2.7,12.49,47.59359,-54.27349
2021-11-09 06:14:00+00:00,60.0,1.08,62.0,1.51,12.49,47.59359,-54.27349
2021-11-09 06:24:00+00:00,70.0,1.46,75.0,2.4,12.49,47.59359,-54.27349
2021-11-09 06:34:00+00:00,98.0,1.12,95.0,1.43,12.49,47.59359,-54.27349
2021-11-09 06:44:00+00:00,44.0,0.94,43.0,1.03,12.49,47.59359,-54.27349
2021-11-09 06:54:00+00:00,77.0,0.94,71.0,1.11,12.49,47.59359,-54.27349
2021-11-09 07:04:00+00:00,27.0,2.11,32.0,2.45,12.49,47.59359,-54.27349
2021-11-09 07:14:00+00:00,2.0,3.14,2.0,3.53,12.41,47.59359,-54.27349
2021-11-09 07:24:00+00:00,4.0,2.9,2.0,3.26,12.41,47.59359,-54.27349
2021-11-09 07:34:00+00:00,357.0,3.0,358.0,3.23,12.41,47.59359,-54.27349
2021-11-09 07:44:00+00:00,0.0,3.17,357.0,3.64,12.41,47.59359,-54.27349
2021-11-09 07:54:00+00:00,353.0,3.57,356.0,4.09,12.41,47.59359,-54.27349
2021-11-09 08:04:00+00:00,350.0,3.67,349.0,4.03,12.41,47.59359,-54.27349
2021-11-09 08:14:00+00:00,351.0,3.2,332.0,3.54,12.41,47.59359,-54.27349
2021-11-09 08:24:00+00:00,353.0,3.33,349.0,3.63,12.41,47.59359,-54.27349
2021-11-09 08:34:00+00:00,359.0,2.96,2.0,3.24,12.41,47.59359,-54.27349
2021-11-09 08:44:00+00:00,0.0,3.39,3.0,3.8,12.41,47.59359,-54.27349
2021-11-09 08:54:00+00:00,355.0,2.95,357.0,3.19,12.41,47.59359,-54.27349
2021-11-09 09:04:00+00:00,314.0,5.07,305.0,6.43,12.41,47.59359,-54.27349
2021-11-09 09:14:01+00:00,330.0,4.2,306.0,6.62,12.41,47.59359,-54.27349
2021-11-09 09:24:01+00:00,342.0,3.62,332.0,4.08,12.41,47.59359,-54.27349
2021-11-09 09:34:01+00:00,339.0,4.15,339.0,4.98,12.41,47.59359,-54.27349
2021-11-09 09:44:01+00:00,345.0,3.55,349.0,4.03,12.41,47.59359,-54.27349
2021-11-09 09:54:01+00:00,349.0,3.4,355.0,4.12,12.41,47.59359,-54.27349
2021-11-09 10:04:01+00:00,321.0,4.73,304.0,6.39,12.41,47.59359,-54.27349
2021-11-09 10:14:00+00:00,358.0,2.98,358.0,3.51,12.41,47.59359,-54.27349
2021-11-09 10:24:00+00:00,7.0,3.03,12.0,3.37,12.41,47.59359,-54.27349
2021-11-09 10:34:00+00:00,6.0,3.02,1.0,3.43,12.41,47.59359,-54.27349
2021-11-09 10:44:00+00:00,357.0,3.3,359.0,3.62,12.41,47.59359,-54.27349
2021-11-09 10:54:00+00:00,358.0,3.31,357.0,3.58,12.41,47.59359,-54.27349
2021-11-09 11:04:00+00:00,348.0,4.67,322.0,5.76,12.41,47.59359,-54.27349
2021-11-09 11:14:01+00:00,331.0,5.25,319.0,6.09,12.41,47.59359,-54.27349
2021-11-09 11:24:01+00:00,345.0,3.97,309.0,5.79,12.41,47.59359,-54.27349
2021-11-09 11:34:01+00:00,3.0,4.4,1.0,4.85,12.41,47.59359,-54.27349
2021-11-09 11:44:01+00:00,354.0,4.91,357.0,5.53,12.41,47.59359,-54.27349
2021-11-09 11:54:01+00:00,358.0,3.93,1.0,4.6,12.41,47.59359,-54.27349
2021-11-09 12:04:01+00:00,4.0,3.48,6.0,3.84,12.41,47.59359,-54.27349
2021-11-09 12:14:01+00:00,5.0,4.25,0.0,4.69,14.4,47.59359,-54.27349
2021-11-09 12:24:01+00:00,7.0,3.85,10.0,4.54,14.4,47.59359,-54.27349
2021-11-09 12:34:01+00:00,359.0,5.76,0.0,6.41,14.4,47.59359,-54.27349
2021-11-09 12:44:01+00:00,5.0,4.91,12.0,5.77,14.4,47.59359,-54.27349
2021-11-09 12:54:01+00:00,4.0,4.88,3.0,5.45,14.4,47.59359,-54.27349
2021-11-09 13:04:01+00:00,4.0,4.78,4.0,5.2,14.4,47.59359,-54.27349
2021-11-09 13:14:01+00:00,5.0,4.05,358.0,4.6,14.32,47.59359,-54.27349
2021-11-09 13:24:01+00:00,14.0,3.32,17.0,3.71,14.32,47.59359,-54.27349
2021-11-09 13:34:01+00:00,18.0,2.95,16.0,3.36,14.32,47.59359,-54.27349
2021-11-09 13:44:01+00:00,16.0,2.89,17.0,3.13,14.32,47.59359,-54.27349
2021-11-09 13:54:01+00:00,30.0,2.18,33.0,2.61,14.32,47.59359,-54.27349
2021-11-09 14:04:01+00:00,41.0,2.22,60.0,4.27,14.32,47.59359,-54.27349
2021-11-09 14:14:01+00:00,62.0,1.83,64.0,2.75,14.32,47.59359,-54.27349
2021-11-09 14:24:01+00:00,53.0,1.18,48.0,1.49,14.32,47.59359,-54.27349
2021-11-09 14:34:01+00:00,54.0,1.04,53.0,1.25,14.32,47.59359,-54.27349
2021-11-09 14:44:01+00:00,9.0,1.48,16.0,2.04,14.32,47.59359,-54.27349
2021-11-09 14:54:01+00:00,10.0,2.37,11.0,3.03,14.32,47.59359,-54.27349
2021-11-09 15:04:01+00:00,42.0,4.81,43.0,5.21,14.32,47.59359,-54.27349
2021-11-09 15:14:01+00:00,48.0,4.53,48.0,4.89,14.32,47.59359,-54.27349
2021-11-09 15:24:01+00:00,62.0,3.77,64.0,4.42,14.32,47.59359,-54.27349
2021-11-09 15:34:01+00:00,63.0,3.29,69.0,3.84,14.32,47.59359,-54.27349
2021-11-09 15:44:01+00:00,55.0,2.92,51.0,3.36,14.32,47.59359,-54.27349
2021-11-09 15:54:01+00:00,57.0,3.02,60.0,3.31,14.32,47.59359,-54.27349
2021-11-09 16:04:01+00:00,45.0,2.64,44.0,2.9,14.32,47.59359,-54.27349
2021-11-09 16:14:00+00:00,65.0,2.58,66.0,2.94,14.32,47.59359,-54.27349
2021-11-09 16:24:00+00:00,65.0,2.07,66.0,2.3,14.32,47.59359,-54.27349
2021-11-09 16:34:00+00:00,73.0,2.35,73.0,2.78,14.32,47.59359,-54.27349
2021-11-09 16:44:00+00:00,69.0,2.36,64.0,2.8,14.32,47.59359,-54.27349
2021-11-09 16:54:00+00:00,72.0,2.21,78.0,2.62,14.32,47.59359,-54.27349
2021-11-09 17:04:00+00:00,73.0,1.79,76.0,1.93,14.32,47.59359,-54.27349
2021-11-09 17:14:01+00:00,95.0,1.59,121.0,2.13,13.68,47.59359,-54.27349
2021-11-09 17:24:01+00:00,76.0,2.15,68.0,2.78,13.68,47.59359,-54.27349
2021-11-09 17:34:01+00:00,79.0,1.63,59.0,2.47,13.68,47.59359,-54.27349
2021-11-09 17:44:01+00:00,100.0,2.33,107.0,3.13,13.68,47.59359,-54.27349
2021-11-09 17:54:01+00:00,91.0,2.09,117.0,2.71,13.68,47.59359,-54.27349
2021-11-09 18:04:01+00:00,75.0,1.56,79.0,1.89,13.68,47.59359,-54.27349
2021-11-09 18:14:01+00:00,168.0,1.2,150.0,1.42,14.24,47.59359,-54.27349
2021-11-09 18:24:01+00:00,242.0,1.15,242.0,1.34,14.24,47.59359,-54.27349
2021-11-09 18:34:01+00:00,273.0,2.29,272.0,2.44,14.24,47.59359,-54.27349
2021-11-09 18:44:01+00:00,255.0,2.59,257.0,2.75,14.24,47.59359,-54.27349
2021-11-09 18:54:01+00:00,250.0,2.97,251.0,3.12,14.24,47.59359,-54.27349
2021-11-09 19:04:01+00:00,218.0,1.97,218.0,2.13,14.24,47.59359,-54.27349
2021-11-09 19:14:00+00:00,219.0,2.21,221.0,2.37,13.92,47.59359,-54.27349
2021-11-09 19:24:00+00:00,216.0,3.0,215.0,3.25,13.92,47.59359,-54.27349
2021-11-09 19:34:00+00:00,201.0,2.59,200.0,2.82,13.92,47.59359,-54.27349
2021-11-09 19:44:00+00:00,212.0,3.14,211.0,3.33,13.92,47.59359,-54.27349
2021-11-09 19:54:00+00:00,222.0,3.95,225.0,4.34,13.92,47.59359,-54.27349
2021-11-09 20:04:00+00:00,216.0,3.75,218.0,3.95,13.92,47.59359,-54.27349
2021-11-09 20:14:01+00:00,226.0,4.25,227.0,4.48,13.29,47.59359,-54.27349
2021-11-09 20:24:01+00:00,221.0,3.37,221.0,3.68,13.29,47.59359,-54.27349
2021-11-09 20:34:01+00:00,220.0,2.75,219.0,2.98,13.29,47.59359,-54.27349
2021-11-09 20:44:01+00:00,243.0,3.23,231.0,3.94,13.29,47.59359,-54.27349
2021-11-09 20:54:01+00:00,295.0,3.4,300.0,3.6,13.29,47.59359,-54.27349
2021-11-09 21:04:01+00:00,310.0,3.45,299.0,4.39,13.29,47.59359,-54.27349
2021-11-09 21:14:01+00:00,267.0,2.02,260.0,2.27,12.73,47.59359,-54.27349
2021-11-09 21:24:01+00:00,244.0,3.14,245.0,3.42,12.73,47.59359,-54.27349
2021-11-09 21:34:01+00:00,259.0,2.74,266.0,3.02,12.73,47.59359,-54.27349
2021-11-09 21:44:01+00:00,276.0,3.85,280.0,4.08,12.73,47.59359,-54.27349
2021-11-09 21:54:01+00:00,265.0,3.27,264.0,3.61,12.73,47.59359,-54.27349
2021-11-09 22:04:01+00:00,279.0,2.72,279.0,2.95,12.73,47.59359,-54.27349
2021-11-09 22:14:01+00:00,255.0,2.75,250.0,3.27,12.65,47.59359,-54.27349
2021-11-09 22:24:01+00:00,232.0,2.54,232.0,2.84,12.65,47.59359,-54.27349
2021-11-09 22:34:01+00:00,202.0,1.1,225.0,1.72,12.65,47.59359,-54.27349
2021-11-09 22:44:01+00:00,212.0,1.98,217.0,2.28,12.65,47.59359,-54.27349
2021-11-09 22:54:01+00:00,249.0,1.12,250.0,1.68,12.65,47.59359,-54.27349
2021-11-09 23:04:01+00:00,217.0,2.48,217.0,2.91,12.65,47.59359,-54.27349
2021-11-09 23:14:00+00:00,231.0,4.68,230.0,5.23,12.57,47.59359,-54.27349
2021-11-09 23:24:00+00:00,239.0,4.93,235.0,5.46,12.57,47.59359,-54.27349
2021-11-09 23:34:00+00:00,232.0,5.21,233.0,5.5,12.57,47.59359,-54.27349
2021-11-09 23:44:00+00:00,232.0,3.73,235.0,4.35,12.57,47.59359,-54.27349
2021-11-09 23:54:00+00:00,227.0,4.04,230.0,4.76,12.57,47.59359,-54.27349
